Noatak, AK

3:36 AM AKDT on March 28, 2017 (GMT -0800)
Noatak

Weather History for PAWN - September, 2012

Change the Weather History Date:

Thursday, September 6, 2012

  Actual Average Record
Temperature  
Mean Temperature 44 °F -  
Max Temperature 48 °F 49 °F 73 °F (2007)
Min Temperature 41 °F 34 °F 15 °F (2008)
Degree Days  
Heating Degree Days 20    
Moisture  
Dew Point 40 °F    
Average Humidity 85    
Maximum Humidity 93    
Minimum Humidity 76    
Precipitation  
Precipitation 0.00 in - - ()
Sea Level Pressure  
Sea Level Pressure 29.61 in    
Wind  
Wind Speed 4 mph (WSW)    
Max Wind Speed 15 mph    
Max Gust Speed -    
Visibility 10 miles    
Events      
Averages and records for this station are not official NWS values.
T = Trace of Precipitation, MM = Missing Value Source: NWS Daily Summary

Daily Weather History Graph

Daily Weather History Graph

Search for Another Location

Airport or City:

Trip Planner

Search our weather history database for the weather conditions in past years. The results will help you decide how hot, cold, wet, or windy it might be!

Date:

Astronomy

Sep. 06, 2012 Rise Set
Actual Time 7:40 AM AKDT 9:56 PM AKDT
Civil Twilight 6:40 AM AKDT 10:56 PM AKDT
Nautical Twilight 5:14 AM AKDT 12:20 AM AKDT
Astronomical Twilight 3:22 AM AKDT 2:17 AM AKDT
Moon 9:33 PM AKDT (9/6) 5:32 PM AKDT (9/6)
Length of Visible Light 16h 16m
Length of Day
14h 16m
Waning Gibbous, 66% of the Moon is Illuminated
Sep 6
Waning Gibbous
Sep 8
Last Quarter
Sep 15
New
Sep 22
First Quarter
Sep 29
Full

Hourly Weather History & Observations

Time (AKDT) Temp. Windchill Dew Point Humidity Pressure Visibility Wind Dir Wind Speed Gust Speed Precip Events Conditions
12:16 AM 44.6 °F 43.1 °F 42.8 °F 93% 29.35 in 10.0 mi NW 3.5 mph - N/A   Overcast
12:36 AM 44.6 °F 43.1 °F 42.8 °F 93% 29.36 in 10.0 mi NNW 3.5 mph - N/A   Overcast
12:56 AM 42.8 °F - 39.2 °F 87% 29.37 in 10.0 mi Calm Calm - N/A   Mostly Cloudy
1:16 AM 42.8 °F - 39.2 °F 87% 29.37 in 10.0 mi Calm Calm - N/A   Partly Cloudy
1:36 AM 42.8 °F - 39.2 °F 87% 29.38 in 10.0 mi Calm Calm - N/A   Mostly Cloudy
1:56 AM 41.0 °F - 39.2 °F 93% 29.39 in 10.0 mi Calm Calm - N/A   Overcast
2:16 AM 42.8 °F - 39.2 °F 87% 29.39 in 10.0 mi Calm Calm - N/A   Overcast
2:36 AM 41.0 °F - 39.2 °F 93% 29.40 in 10.0 mi Calm Calm - N/A   Overcast
2:56 AM 42.8 °F - 39.2 °F 87% 29.41 in 10.0 mi Calm Calm - N/A   Overcast
3:16 AM 42.8 °F - 39.2 °F 87% 29.41 in 10.0 mi Calm Calm - N/A   Overcast
3:36 AM 42.8 °F - 39.2 °F 87% 29.42 in 10.0 mi Calm Calm - N/A   Overcast
3:56 AM 42.8 °F - 39.2 °F 87% 29.42 in 10.0 mi Calm Calm - N/A   Overcast
4:16 AM 42.8 °F - 39.2 °F 87% 29.43 in 10.0 mi Calm Calm - N/A   Overcast
4:36 AM 42.8 °F - 41.0 °F 93% 29.44 in 10.0 mi Calm Calm - N/A   Overcast
4:56 AM 42.8 °F - 41.0 °F 93% 29.44 in 10.0 mi Calm Calm - N/A   Overcast
5:16 AM 42.8 °F - 41.0 °F 93% 29.45 in 10.0 mi Calm Calm - N/A   Overcast
5:36 AM 42.8 °F 40.1 °F 41.0 °F 93% 29.46 in 10.0 mi SW 4.6 mph - N/A   Overcast
5:56 AM 42.8 °F 40.1 °F 41.0 °F 93% 29.46 in 10.0 mi SW 4.6 mph - N/A   Overcast
6:16 AM 42.8 °F - 39.2 °F 87% 29.47 in 10.0 mi Calm Calm - N/A   Overcast
6:36 AM 42.8 °F 41.1 °F 41.0 °F 93% 29.47 in 10.0 mi West 3.5 mph - N/A   Overcast
6:56 AM 42.8 °F 41.1 °F 41.0 °F 93% 29.47 in 10.0 mi WSW 3.5 mph - N/A   Overcast
7:16 AM 42.8 °F 40.1 °F 41.0 °F 93% 29.48 in 10.0 mi West 4.6 mph - N/A   Overcast
7:36 AM 44.6 °F 42.2 °F 42.8 °F 93% 29.48 in 10.0 mi West 4.6 mph - N/A   Overcast
7:56 AM 44.6 °F 41.4 °F 42.8 °F 93% 29.49 in 10.0 mi West 5.8 mph - N/A   Overcast
8:16 AM 44.6 °F - 41.0 °F 87% 29.50 in 10.0 mi Calm Calm - N/A   Overcast
8:36 AM 44.6 °F - 41.0 °F 87% 29.51 in 10.0 mi Calm Calm - N/A   Overcast
8:56 AM 44.6 °F 41.4 °F 42.8 °F 93% 29.52 in 9.0 mi WSW 5.8 mph - N/A   Overcast
9:16 AM 44.6 °F 40.2 °F 42.8 °F 93% 29.52 in 10.0 mi West 8.1 mph - N/A   Overcast
9:36 AM 44.6 °F 40.7 °F 41.0 °F 87% 29.53 in 10.0 mi WNW 6.9 mph - N/A   Overcast
9:56 AM 44.6 °F 41.4 °F 41.0 °F 87% 29.54 in 10.0 mi WNW 5.8 mph - N/A   Overcast
10:16 AM 44.6 °F 40.2 °F 41.0 °F 87% 29.55 in 10.0 mi West 8.1 mph - N/A   Overcast
10:36 AM 44.6 °F 40.7 °F 41.0 °F 87% 29.56 in 10.0 mi West 6.9 mph - N/A   Overcast
10:56 AM 44.6 °F 40.2 °F 41.0 °F 87% 29.57 in 10.0 mi West 8.1 mph - N/A   Overcast
11:16 AM 44.6 °F 42.2 °F 41.0 °F 87% 29.58 in 10.0 mi West 4.6 mph - N/A   Overcast
11:36 AM 44.6 °F 40.7 °F 42.8 °F 93% 29.59 in 10.0 mi West 6.9 mph - N/A   Overcast
11:56 AM 46.4 °F 42.4 °F 41.0 °F 81% 29.60 in 10.0 mi WSW 8.1 mph - N/A   Overcast
12:16 PM 46.4 °F 42.4 °F 42.8 °F 87% 29.61 in 10.0 mi West 8.1 mph - N/A   Overcast
12:36 PM 46.4 °F 41.1 °F 41.0 °F 81% 29.62 in 10.0 mi West 11.5 mph - N/A   Overcast
12:56 PM 46.4 °F 41.9 °F 41.0 °F 81% 29.63 in 10.0 mi West 9.2 mph - N/A   Overcast
1:16 PM 46.4 °F 42.9 °F 41.0 °F 81% 29.64 in 10.0 mi West 6.9 mph - N/A   Overcast
1:36 PM 46.4 °F 44.3 °F 42.8 °F 87% 29.64 in 10.0 mi West 4.6 mph - N/A   Overcast
1:56 PM 46.4 °F 41.9 °F 42.8 °F 87% 29.65 in 10.0 mi WSW 9.2 mph - N/A   Overcast
2:16 PM 48.2 °F - 42.8 °F 82% 29.66 in 10.0 mi SW 9.2 mph - N/A   Overcast
2:36 PM 48.2 °F - 42.8 °F 82% 29.67 in 10.0 mi SW 10.4 mph - N/A   Overcast
2:56 PM 48.2 °F - 41.0 °F 76% 29.67 in 10.0 mi WSW 8.1 mph - N/A   Overcast
3:16 PM 48.2 °F - 41.0 °F 76% 29.69 in 10.0 mi WSW 9.2 mph - N/A   Overcast
3:36 PM 46.4 °F 41.9 °F 41.0 °F 81% 29.69 in 10.0 mi SW 9.2 mph - N/A   Overcast
3:56 PM 46.4 °F 41.9 °F 42.8 °F 87% 29.70 in 10.0 mi WSW 9.2 mph - N/A   Overcast
4:16 PM 46.4 °F 40.7 °F 42.8 °F 87% 29.71 in 10.0 mi WSW 12.7 mph - N/A   Overcast
4:36 PM 48.2 °F - 42.8 °F 82% 29.71 in 10.0 mi WSW 11.5 mph - N/A   Overcast
4:56 PM 48.2 °F - 41.0 °F 76% 29.72 in 10.0 mi West 12.7 mph - N/A   Overcast
5:16 PM 48.2 °F - 41.0 °F 76% 29.72 in 10.0 mi West 13.8 mph - N/A   Overcast
5:36 PM 48.2 °F - 41.0 °F 76% 29.73 in 10.0 mi West 15.0 mph - N/A   Overcast
5:56 PM 46.4 °F 40.4 °F 41.0 °F 81% 29.74 in 10.0 mi West 13.8 mph - N/A   Overcast
6:16 PM 46.4 °F 40.7 °F 41.0 °F 81% 29.75 in 10.0 mi West 12.7 mph - N/A   Overcast
6:36 PM 46.4 °F 41.1 °F 39.2 °F 76% 29.76 in 10.0 mi West 11.5 mph - N/A   Mostly Cloudy
6:56 PM 46.4 °F 41.9 °F 39.2 °F 76% 29.76 in 10.0 mi West 9.2 mph - N/A   Overcast
7:16 PM 46.4 °F 41.9 °F 39.2 °F 76% 29.77 in 10.0 mi West 9.2 mph - N/A   Overcast
7:36 PM 46.4 °F 41.5 °F 39.2 °F 76% 29.78 in 10.0 mi WSW 10.4 mph - N/A   Overcast
7:56 PM 46.4 °F 41.5 °F 39.2 °F 76% 29.79 in 10.0 mi West 10.4 mph - N/A   Overcast
8:16 PM 44.6 °F 40.2 °F 39.2 °F 81% 29.79 in 10.0 mi WSW 8.1 mph - N/A   Overcast
8:36 PM 44.6 °F 40.7 °F 39.2 °F 81% 29.80 in 10.0 mi West 6.9 mph - N/A   Overcast
8:56 PM 44.6 °F 41.4 °F 39.2 °F 81% 29.81 in 10.0 mi SSW 5.8 mph - N/A   Overcast
9:16 PM 44.6 °F 41.4 °F 37.4 °F 76% 29.82 in 10.0 mi WSW 5.8 mph - N/A   Overcast
9:36 PM 42.8 °F 37.5 °F 37.4 °F 81% 29.82 in 10.0 mi West 9.2 mph - N/A   Overcast
9:56 PM 42.8 °F 38.6 °F 37.4 °F 81% 29.83 in 10.0 mi West 6.9 mph - N/A   Overcast
10:16 PM 42.8 °F 38.6 °F 37.4 °F 81% 29.84 in 10.0 mi West 6.9 mph - N/A   Overcast
10:36 PM 42.8 °F 38.6 °F 37.4 °F 81% 29.85 in 10.0 mi WSW 6.9 mph - N/A   Overcast
10:56 PM 42.8 °F 39.3 °F 37.4 °F 81% 29.85 in 10.0 mi WSW 5.8 mph - N/A   Overcast
11:16 PM 41.0 °F - 37.4 °F 87% 29.86 in 10.0 mi Calm Calm - N/A   Overcast
11:36 PM 41.0 °F - 37.4 °F 87% 29.87 in 10.0 mi Calm Calm - N/A   Overcast
11:56 PM 41.0 °F 38.0 °F 37.4 °F 87% 29.88 in 10.0 mi SW 4.6 mph - N/A   Overcast